Weather History for Ottumwa, IA

Change the Weather History Date:

Friday, June 28, 2013

  Actual Average Record
Temperature  
Mean Temperature 76 °F 74 °F  
Max Temperature 85 °F 85 °F 103 °F (1934)
Min Temperature 66 °F 64 °F 45 °F (1911)
Degree Days  
Heating Degree Days 0 0  
Month to date heating degree days 26 19  
Since 1 June heating degree days 26 19  
Since 1 July heating degree days 6271 6315  
Cooling Degree Days 11 9  
Month to date cooling degree days 187 181  
Year to date cooling degree days 264 245  
Since 1 June cooling degree days 187 181  
Growing Degree Days 25 (Base 50)    
Moisture  
Dew Point 58 °F    
Average Humidity 61    
Maximum Humidity 87    
Minimum Humidity 34    
Precipitation  
Precipitation 0.00 in 0.17 in 2.60 in (1928)
Month to date precipitation 2.15 4.77  
Year to date precipitation 25.90 17.30  
Sea Level Pressure  
Sea Level Pressure 29.79 in    
Wind  
Wind Speed 15 mph (NW)    
Max Wind Speed 30 mph    
Max Gust Speed 39 mph    
Visibility 10 miles    
Events      
T = Trace of Precipitation, MM = Missing Value Source: NWS Daily Summary

Daily Weather History Graph

Daily Weather History Graph

Search for Another Location

Airport:

Trip Planner

Search our weather history database for the weather conditions in past years. The results will help you decide how hot, cold, wet, or windy it might be!

Date:

Astronomy

Jun. 28, 2013 Rise Set
Actual Time 5:39 AM CDT 8:46 PM CDT
Civil Twilight 5:06 AM CDT 9:19 PM CDT
Nautical Twilight 4:23 AM CDT 10:02 PM CDT
Astronomical Twilight 3:32 AM CDT 10:53 PM CDT
Moon No Moon Rise 11:51 AM CDT (6/28)
Length of Visible Light 16h 13m
Length of Day
15h 06m
Waning Gibbous, 66% of the Moon is Illuminated
Jun 28
Waning Gibbous
Jun 29
Last Quarter
Jul 8
New
Jul 15
First Quarter
Jul 22
Full

Hourly Weather History & Observations

Time (CDT) Temp. Heat Index Dew Point Humidity Pressure Visibility Wind Dir Wind Speed Gust Speed Precip Events Conditions
12:53 AM 71.1 °F - 63.0 °F 75% 29.84 in 10.0 mi WNW 8.1 mph - N/A   Clear
1:53 AM 70.0 °F - 63.0 °F 78% 29.83 in 10.0 mi WNW 6.9 mph - N/A   Clear
2:53 AM 66.9 °F - 63.0 °F 87% 29.83 in 10.0 mi West 6.9 mph - N/A   Clear
3:53 AM 66.9 °F - 63.0 °F 87% 29.82 in 10.0 mi WNW 9.2 mph - N/A   Clear
4:53 AM 68.0 °F - 62.1 °F 81% 29.80 in 10.0 mi WNW 8.1 mph - N/A   Clear
5:53 AM 66.0 °F - 62.1 °F 87% 29.82 in 10.0 mi West 6.9 mph - N/A   Clear
6:53 AM 69.1 °F - 63.0 °F 81% 29.83 in 10.0 mi WNW 9.2 mph - N/A   Scattered Clouds
7:53 AM 72.0 °F - 61.0 °F 68% 29.85 in 10.0 mi NW 12.7 mph - N/A   Clear
8:53 AM 75.0 °F - 60.1 °F 60% 29.85 in 10.0 mi NNW 13.8 mph - N/A   Clear
9:53 AM 78.1 °F - 59.0 °F 52% 29.84 in 10.0 mi NW 10.4 mph 23.0 mph N/A   Clear
10:53 AM 80.1 °F 80.7 °F 59.0 °F 48% 29.83 in 10.0 mi NW 17.3 mph 25.3 mph N/A   Clear
11:53 AM 81.0 °F 80.7 °F 55.0 °F 41% 29.82 in 10.0 mi NW 21.9 mph 29.9 mph N/A   Clear
12:53 PM 82.9 °F 81.9 °F 54.0 °F 37% 29.81 in 10.0 mi NW 24.2 mph 38.0 mph N/A   Clear
1:53 PM 82.9 °F 81.8 °F 53.1 °F 36% 29.79 in 10.0 mi NW 29.9 mph 39.1 mph N/A   Scattered Clouds
2:53 PM 84.9 °F 83.3 °F 54.0 °F 34% 29.77 in 10.0 mi NW 19.6 mph 34.5 mph N/A   Partly Cloudy
3:53 PM 84.9 °F 83.2 °F 53.1 °F 33% 29.76 in 10.0 mi NW 21.9 mph 31.1 mph N/A   Partly Cloudy
4:53 PM 84.0 °F 82.5 °F 53.1 °F 34% 29.75 in 10.0 mi NW 18.4 mph 29.9 mph N/A   Scattered Clouds
5:53 PM 82.9 °F 81.9 °F 54.0 °F 37% 29.74 in 10.0 mi NW 26.5 mph 34.5 mph N/A   Scattered Clouds
6:53 PM 82.0 °F 81.3 °F 54.0 °F 38% 29.73 in 10.0 mi NNW 18.4 mph 27.6 mph N/A   Clear
7:53 PM 79.0 °F - 55.9 °F 45% 29.74 in 10.0 mi NNW 16.1 mph 25.3 mph N/A   Clear
8:53 PM 73.9 °F - 57.0 °F 55% 29.75 in 10.0 mi NNW 13.8 mph - N/A   Partly Cloudy
9:53 PM 71.1 °F - 57.0 °F 61% 29.75 in 10.0 mi NNW 10.4 mph - N/A   Clear
10:53 PM 69.1 °F - 57.9 °F 68% 29.75 in 10.0 mi NW 10.4 mph - N/A   Clear
11:53 PM 70.0 °F - 57.9 °F 65% 29.74 in 10.0 mi NW 10.4 mph - N/A   Clear